Location: Unspecified
(33.6682°S, 0.0000°E)
Time: 17:45:00
(UTC+00:00)

Vanguard 2 Rocket - Pass Details

Date: 26 June 2019
Orbit: 554 x 3326 km, 32.9° (Epoch: 21 July)

Event Time Altitude Azimuth Distance (km) Brightness Sun altitude
Rises 07:07:45 0° 303° (WNW) 7,304 11.2 -0.4°
Reaches altitude 10° 07:12:55 10° 306° (NW) 6,204 10.9 0.6°
Maximum altitude 07:31:36 64° 21° (NNE) 2,741 9.7 3.9°
Drops below altitude 10° 07:43:17 10° 99° (E) 4,090 11.1 6.0°
Sets 07:45:57 0° 102° (ESE) 4,779 11.3 6.5°
